Location: Fours
(44.3167°N, 6.7000°E)
Time: 22:57:13
(UTC+00:00)

Cosmos 2218 Rocket - Pass Details

Date: 16 October 2021
Orbit: 956 x 1006 km, 82.9° (Epoch: 26 November)

Event Time Altitude Azimuth Distance (km) Brightness Sun altitude
Rises 17:16:30 0° 186° (S) 3,655 7.2 -6.0°
Reaches altitude 10° 17:18:59 10° 187° (S) 2,718 6.5 -6.4°
Maximum altitude 17:25:14 88° 277° (W) 994 4.1 -7.5°
Drops below altitude 10° 17:31:37 10° 8° (N) 2,771 6.3 -8.7°
Sets 17:34:10 0° 9° (N) 3,730 6.9 -9.1°
